TURKSAT 4A

Last updated on Thu Dec 18 2025 00:02:49 GMT+0000 (Coordinated Universal Time)

1 39522U 14007A 25351.56361565 .00000171 00000+0 00000+0 0 9993 2 39522 0.0725 287.5289 0004909 349.1384 54.6856 1.00273831 43143
UTC large
Height (km)
Speed (km/s)
/
Latitude / Longitude
Inclination (degrees)
Orbital Period (minutes)
Azimuth
Elevation
Range (km)
Doppler Factor

Next 0 passes for location: London (51.5072 / 0.1276)

Sorry there are no passes over London.